2020-102A (47296 NORAD) Tracking and Keplerian Element Data

This shows tracking and keplerian element data for the satellite.

Feedback or suggestion? Click here.




ElementValue
Catalog47296
Name2020-102A
Epoch Orbit1744
Epoch Day106.08901712
Epoch Year2021
RAAN204.5791
Inclination97.43
Eccentricity0.0008972
Argument of Perigee137.4128
Mean Anonmoly344.5793
Mean Motion15.18993075
Decay Rate1.105E-05
L11 47296U 20102A 21106.08901712 .00001105 00000-0 56009-4 0 9992
L22 47296 97.4300 204.5791 0008972 137.4128 344.5793 15.18993075 17442

Live tracking and technical data element details for 2020-102A (NORAD 47296). 2020-102A can be tracked NOW for your location showing map with azimuth and elevation plus other details from your city location.

Track the satellite on the map from your city or location and see movement details for azimuth, elevation, latitude, longitude, range, height, and movement on the map or in text.







IsCatalogInMostPopularTable: catalog: 47296, numindb: 33
Update: records affected: 1



GetName: 47296 2020-102A

Hit Count: updated at: Fri, 16 Apr 2021 11:48:08 GMT